Location: *
(50.8512°N, 5.6907°E)
Time: 22:33:52
(UTC+00:00)

SPOT 1/Viking Rocket - Pass Details

Date: 09 April 2020
Orbit: 776 x 795 km, 98.5° (Epoch: 23 May)

Event Time Altitude Azimuth Distance (km) Brightness Sun altitude
Exits shadow 21:30:43 34° 219° (SW) 1,282 4.5 -25.0°
Maximum altitude 21:32:20 44° 262° (W) 1,091 4.4 -25.1°
Drops below altitude 10° 21:37:21 10° 334° (NNW) 2,377 7.1 -25.6°
Sets 21:39:48 0° 341° (NNW) 3,311 8.0 -25.8°
